Location: Hermaringen
(48.5952°N, 10.2585°E)
Time: 14:09:22
(UTC+00:00)

Vanguard 3 - Pass Details

Date: 20 February 2026
Orbit: 507 x 3205 km, 33.3° (Epoch: 5 March)

Event Time Altitude Azimuth Distance (km) Brightness Sun altitude
Rises 17:27:18 0° 253° (WSW) 4,811 13.3 -7.2°
Reaches altitude 10° 17:32:03 10° 238° (WSW) 3,281 11.5 -7.9°
Maximum altitude 17:37:11 19° 197° (SSW) 2,098 9.6 -8.8°
Drops below altitude 10° 17:40:57 10° 151° (SSE) 2,294 9.2 -9.4°
Enters shadow 17:43:20 - 134° (SE) 2,907 9.6 -9.8°
